Regional Weather Roundup
Issued by NWS

Home | Current Version | Previous Version | Graphics & Text | Print | Product List | Glossary On
Versions: 1 2 3 4 5 6 7 8 9 10 11 12 13 14 15 16 17 18 19 20 21 22 23 24 25 26 27 28 29 30 31 32 33 34 35 36 37 38 39 40 41 42 43 44 45 46 47 48 49 50
000
ASUS43 KBIS 230910
RWRND

NORTH DAKOTA REGIONAL WEATHER ROUNDUP
NATIONAL WEATHER SERVICE BISMARCK ND
400 AM CDT TUE SEP 23 2014

NOTE: "FAIR" INDICATES FEW OR NO CLOUDS BELOW 12,000 FEET WITH NO
SIGNIFICANT WEATHER AND/OR OBSTRUCTIONS TO VISIBILITY.


NDZ001>003-009>011-017-231000-
NORTHWEST NORTH DAKOTA

CITY           SKY/WX    TMP DP  RH WIND       PRES   REMARKS
WILLISTON      CLEAR     50  46  86 NE3       29.85S
MINOT          CLEAR     53  48  83 SE5       29.89S
MINOT AFB      CLEAR     50  50  98 SE7       29.88F
$$

NDZ018>021-031>035-040>046-231000-
SOUTHWEST NORTH DAKOTA

CITY           SKY/WX    TMP DP  RH WIND       PRES   REMARKS
BISMARCK       CLEAR     56  52  86 SE8       29.91F
DICKINSON      PTCLDY    52  48  86 S9        29.86F
GARRISON         N/A     56  51  84 SE8       29.90S
HETTINGER ARPT PTCLDY    52  49  89 SE3       29.89S
$$

NDZ004>008-012>016-024-026-027-054-231000-
NORTHEAST NORTH DAKOTA

CITY           SKY/WX    TMP DP  RH WIND       PRES   REMARKS
GRAND FORKS    CLEAR     52  48  86 SE8       30.01S
GRND FRKS AFB  CLEAR     52  50  95 SE7       30.01S
DEVILS LAKE    CLEAR     55  46  71 SE6       29.96S
$$

NDZ022-023-025-028>030-036>039-047>053-231000-
SOUTHEAST NORTH DAKOTA

CITY           SKY/WX    TMP DP  RH WIND       PRES   REMARKS
FARGO          CLEAR     58  48  69 SE13      30.03F
JAMESTOWN      CLEAR     56  50  80 S12       29.97F
$$



USA.gov is the U.S. government's official web portal to all federal, state and local government web resources and services.